#timestamp,LO_Frequency,Hit,StdDev 
1620264895.9,286047024.7,P
1620264915.7,286047022.2,P
1620264935.5,286047024.8,P
1620264955.4,286047023.9,Y
1620264975.2,286047002.4,P
1620264995.0,286047002.4,N
1620264995.9,286047002.4,N
1620265015.8,286047002.3,N
1620265035.6,286047001.6,N
1620265055.5,286047003.9,N
1620265075.3,286047002.0,N
1620265095.1,286047002.5,N
1620265115.9,286047000.4,N
1620265135.7,286047000.9,N
1620265155.5,286047002.6,N
1620265175.4,286047001.8,N
1620265195.2,286047001.5,N
1620265215.1,286047003.6,N
1620265216.0,286047003.6,N
1620265235.8,286047006.0,N
1620265255.6,286047006.0,N
1620265275.5,286047005.8,N
1620265295.3,286047003.0,N
1620265315.1,286047005.7,N
1620265335.9,286047002.9,N
1620265355.7,286047006.0,N
1620265375.6,286047003.2,N
1620265395.4,286047003.2,N
1620265415.2,286047003.7,N
1620265435.1,286047005.8,N
1620265436.0,286047005.8,N
1620265455.8,286047006.0,N
1620265475.6,286047003.0,N
1620265495.5,286047005.5,N
1620265515.3,286047007.4,Y
1620265535.2,286047003.6,P
1620265555.9,286047005.3,P
1620265575.7,286047005.1,P
1620265595.6,286047005.3,Y
1620265615.4,286047001.5,P
1620265635.2,286047002.2,N
1620265655.1,286047001.8,N
1620265656.0,286047001.8,N
1620265675.8,286047003.9,Y
1620265695.7,286047000.0,P
1620265715.5,286047000.0,N
1620265735.3,286047000.3,N
1620265755.2,286047002.5,N
1620265775.0,286047001.9,N
1620265775.9,286047001.9,N
1620265795.8,286047001.6,N
1620265815.6,286047004.0,Y
1620265835.4,286047002.8,P
1620265855.3,286046998.1,N
1620265875.1,286046999.7,N
1620265895.9,286047002.2,N
1620265915.7,286047002.5,N
1620265935.5,286047002.5,N
1620265955.4,286047000.1,N
1620265975.2,286047002.1,N
1620265995.1,286047001.9,N
1620265996.0,286047001.9,N
1620266015.8,286047003.9,N
1620266035.6,286047004.2,N
1620266055.5,286047011.9,Y
1620266075.3,286047001.3,P
1620266095.1,286047004.4,P
1620266115.9,286047001.7,N
1620266135.7,286047001.4,N
1620266155.6,286047002.1,N
1620266175.4,286047001.6,N
1620266195.2,286047001.3,N
1620266215.1,286047004.4,Y
1620266216.0,286047004.4,P
1620266235.8,286046999.8,N
1620266255.7,286047000.1,N
1620266275.5,286046999.8,N
1620266295.3,286047000.4,N
1620266315.2,286046999.8,N
1620266335.0,286047002.6,N
1620266335.9,286047002.6,N
1620266355.8,286046999.9,N
1620266375.6,286047001.9,N
1620266395.4,286047003.9,N
